星链-5913 (STARLINK-5913 )

导读 | 星芒AI

STARLINK-5913 是 SpaceX Starlink 卫星互联网项目中的一颗低轨卫星,属于“星链”计划的组成部分。该卫星由 SpaceX 设计和发射,旨在为全球用户提供高速互联网服务。它运行在近地轨道,与其他 Starlink 卫星协同工作,构建覆盖广泛的通信网络。STARLINK-5913 采用先进推进系统和激光通信技术,提高数据传输效率并减少地面基站依赖。该卫星的发射和运行有助于提升偏远地区的网络接入能力,推动全球数字化发展。

基本信息
目录编号:
55937
目录名称:
STARLINK-5913
国际标识:
2023-037Z
轨道中心:
EARTH
卫星名称:
星链-5913
卫星全名:
星链-5913 (STARLINK-5913 )
卫星状态:
在轨 (已飞行963 天)
发射日期:
2023-03-17 UTC
国别 :
美国 (US)
星等 :
--
轨道信息
数据来源 国际轨道数据
星历时间: 2025-11-04T03:27:34+0800
11小时前
查看轨道信息
半长轴: 6950.194km
偏心率: 0.0003189
轨道倾角: 70.000°
近地点辐角 272.366°
升交点赤经 241.882°
平近点角 87.713°
近地点: 569.842km
远地点: 574.276km
周期: 96.107分钟
每日圈数: 14.983298
详细信息
固有亮度:
5
最大亮度:
2.5
卫星平台:
Starlink v1.5
覆盖范围:
全球
运营商:
太空探索技术公司
运营商所在国:
美国
制造商(研发单位):
太空探索技术公司
制造商所在国:
美国
使用方式:
暂无
卫星简介
星链(Starlink)计划是由太空探索技术公司(SpaceX)提出的一个巨型低轨卫星互联网星座项目,计划在2019年至2024年间在太空搭建由约1.2万颗卫星组成的“星链”网络,其中1584颗将部署在地球上空550千米处的近地轨道,并从2020年开始工作。该卫星仍在工作。
2D轨道图
3D轨道图
轨道高度分析图
轨道倾角分析图
轨道综合分析图
查看轨道综合分析图